Delta Junction, AK (99737)

9:30 PM AKST on February 23, 2017 (GMT -0900)
Allen Army Air Field | | Change Station

Elev 1276 ft 63.99 °N, 145.72 °W | Updated 37 minutes ago

Overcast
Overcast
23 °F
Feels Like 10 °F
N
16
Wind Variable Wind from ESE

Today
High -- | Low -- °F
--% Chance of Precip.
Yesterday
High -- | Low -- °F
Precip. -- in
Pressure 30.22 in
Visibility 10.0 miles
Clouds Mostly Cloudy 12000 ft
Mostly Cloudy 14000 ft
Overcast 20000 ft
Windchill 10 °F
Dew Point 12 °F
Humidity 63%
Rainfall 0.00 in
Snow Depth Not available.
8:09 AM 5:44 PM
Waning Crescent, 6% visible
METAR PABI 240553Z 12014KT 10SM BKN120 BKN140 OVC200 M05/M11 A3010 RMK AO2 SNB23E35 SLP231 P0000 60000 T10501111 11050 21078 56024
Pressure 30.22 in
Visibility 10.0 miles
Clouds Mostly Cloudy 12000 ft
Mostly Cloudy 14000 ft
Overcast 20000 ft
Windchill 10 °F
Dew Point 12 °F
Humidity 63%
Rainfall 0.00 in
Snow Depth Not available.
8:09 AM 5:44 PM
Waning Crescent, 6% visible
METAR PABI 240553Z 12014KT 10SM BKN120 BKN140 OVC200 M05/M11 A3010 RMK AO2 SNB23E35 SLP231 P0000 60000 T10501111 11050 21078 56024

Get Your Daily Forecast Email!

Thanks for signing up!

Be on the lookout for a verification email in your inbox.

You'll start receiving the daily forecast at 8 AM.

×

10-Day Weather Forecast

Almanac

Astronomy

Feb. 23, 2017 Rise Set
Actual Time
Civil Twilight
Nautical Twilight
Astronomical Twilight
Moon
Length of Visible Light
Length of Day
Tomorrow will be .
, % of the Moon is Illuminated

Today's Extremes

State Highs State Lows

Community

WunderPhotos

Upload Photos

1,962,540 photos uploaded!

WunderBlog® & News

Nearby

Air Quality

  Air Quality AQ Index Pollutant
Not available.

Snow Depth

Station Depth Elevation

Earthquake Activity

City Distance Mag. Time & Date
Minimum magnitude displayed is 2.5.

Coastal Water Temperatures

Place Temperature

Stations

Nearby Weather Stations

Station Location Temp. Windchill Dew Point Humidity Wind Precip. Elev Updated Type
                   

Watches & Warnings

There are currently no watches in effect.